User: anonymous   Login
Location: Unspecified
(0.0000°N, 0.0000°E)
Time: 23:16:24
(UTC+00:00)
Language:

STARLINK-11359 [DTC] - Orbit

View from above orbital plane
View from above orbital plane
View from above satellite
View from above satellite

Ground track
Ground track

The orbit is defined by the following mean orbital elements,

1 61884U          26145.52257748 +.00000000 +00000-0 +12749-4 0 00005
2 61884  53.1582 337.3883 0000581 110.1443 249.9638 15.69713041    04
Epoch (UTC): 25 May 2026 12:32:30
Eccentricity: 0.0000581
inclination: 53.1582°
perigee height: 359 km
apogee height: 360 km
right ascension of ascending node: 337.3883°
argument of perigee: 110.1443°
revolutions per day: 15.69713041
mean anomaly at epoch: 249.9638°

The dashed part of the orbit path shows where the satellite is in the earth's shadow,  

DLR